Regional Weather Roundup
Issued by NWS Memphis, TN

Current Version | Previous Version | Text Only | Print | Product List | Glossary On
Versions: 1 2 3 4 5 6 7 8 9 10 11 12 13 14 15 16 17 18 19 20 21 22 23 24 25 26 27 28 29 30 31 32 33 34 35 36 37 38 39 40 41 42 43 44 45 46 47 48 49 50
000
ASUS44 KMEG 190910
RWRMEG
MEMPHIS CWA HOURLY WEATHER ROUNDUP
NATIONAL WEATHER SERVICE MEMPHIS TN
300 AM CST THU JAN 19 2017

...WEST TENNESSEE...

CITY           SKY/WX    TMP DP  RH WIND       PRES   REMARKS
MEMPHIS INTL   CLOUDY    54  53  97 E7        29.95F
NWS MEMPHIS      N/A     53 N/A N/A MISG        N/A
JACKSON        LGT RAIN  51  50  96 CALM      30.00F FOG
BOLIVAR        CLOUDY    54  52  94 CALM      29.98F
DYERSBURG      CLOUDY    46  45  93 E3        29.99F
UNION CITY     CLOUDY   N/A N/A N/A CALM      29.99F
PARIS          CLOUDY    45  43  93 CALM      30.01F
HUNTINGDON     CLOUDY    48  46  93 E5        30.00F


...EASTERN ARKANSAS...

CITY           SKY/WX    TMP DP  RH WIND       PRES   REMARKS
JONESBORO      LGT RAIN  47  45  93 NE7       29.96F
WEST MEMPHIS   CLOUDY    52  52 100 E7        29.94F
BATESVILLE     CLOUDY    45  43  93 NE3       29.96F VSB 1/2
NEWPORT        CLOUDY    45  45 100 NE12      29.94  FOG
WALNUT RIDGE   CLOUDY    45  41  87 NE9       29.96F
BLYTHEVILLE    LGT RAIN  48  46  93 E8        29.98F
SEARCY         RAIN      46  46 100 NE7       29.95F FOG
STUTTGART      CLOUDY    48  43  81 NE6       29.93F
PINE BLUFF     CLOUDY    49  48  97 N3        29.92F FOG
MONTICELLO     FOG       51  51 100 N3        29.90F VSB 1/2


...NORTH MISSISSIPPI...

CITY           SKY/WX    TMP DP  RH WIND       PRES   REMARKS
TUPELO         CLOUDY    57  54  89 SE5       29.98F
OXFORD         CLOUDY    55  55 100 SE3       29.97F
BATESVILLE     CLOUDY    56  55  97 CALM      29.95F FOG
TUNICA         CLOUDY    50  50 100 E8        29.94F
CLARKSDALE     CLOUDY    54  54 100 NE7       29.93F FOG
CORINTH        CLOUDY    55  54  94 CALM      29.99R
GREENWOOD      LGT RAIN  64  61  90 S10       29.93F
STARKVILLE     CLOUDY    61  59  94 S7        29.99F FOG
GOLDEN TRIANGL CLOUDY    61  57  88 S9        29.95R


...SOUTHEAST MISSOURI...

CITY           SKY/WX    TMP DP  RH WIND       PRES   REMARKS
KENNETT        CLOUDY    48  46  93 NE5       29.98F
WEST PLAINS    FOG       41  41 100 E5        29.96F VSB 1
POPLAR BLUFF   CLOUDY    43  43 100 NE6       30.00F FOG
CAPE GIRARDEAU CLOUDY    43  41  93 E7        30.01F FOG


...NORTHWEST ALABAMA...

CITY           SKY/WX    TMP DP  RH WIND       PRES   REMARKS
MUSCLE SHOALS  CLOUDY    54  50  86 E3        30.01R


...MIDDLE TENNESSEE...

CITY           SKY/WX    TMP DP  RH WIND       PRES   REMARKS
NASHVILLE      CLOUDY    48  42  80 NE5       30.03F
CLARKSVILLE    CLOUDY    46  41  82 E9        30.03S
COLUMBIA       MOCLDY   N/A N/A N/A NE5       30.00F


...WESTERN KENTUCKY...

CITY           SKY/WX    TMP DP  RH WIND       PRES   REMARKS
PADUCAH        CLOUDY    46  40  79 E6        30.02F
FORT CAMPBELL  MOCLDY    46  43  89 NE6       30.02F


...CENTRAL ARKANSAS...

CITY           SKY/WX    TMP DP  RH WIND       PRES   REMARKS
LITTLE ROCK    DRZL/FOG  46  46 100 N3        29.95F VSB 1


SKY/WX REPORTED AS FAIR MEANS FEW OR NO CLOUDS BELOW
12 THOUSAND FEET.





USA.gov is the U.S. government's official web portal to all federal, state and local government web resources and services.